Location: ???????
(55.4362°N, 38.1183°E)
Time: 02:23:51
(UTC+00:00)

Envisat - Visible Passes

Search period start: 18 September 2021 00:00
Search period end: 28 September 2021 00:00
Orbit: 764 x 766 km, 98.2° (Epoch: 17 September)

Date Brightness Start Highest point End Pass type
(mag) Time Alt. Az. Time Alt. Az. Time Alt. Az.
18 Sep 5.6 01:37:28 10° NE 01:41:24 22° E 01:45:19 10° SE visible
19 Sep 6.2 01:02:12 10° ENE 01:03:59 12° E 01:05:46 10° ESE visible
20 Sep 4.9 02:02:24 10° NNE 02:07:01 33° E 02:11:35 10° SSE visible
21 Sep 5.8 01:26:14 10° NE 01:29:45 18° E 01:33:14 10° SE visible
22 Sep 4.1 02:27:33 10° NNE 02:32:32 51° E 02:37:28 10° S visible
23 Sep 5.2 01:51:02 10° NNE 01:55:24 28° E 01:59:44 10° SSE visible
24 Sep 6.0 01:15:07 10° NE 01:18:04 15° E 01:20:59 10° ESE visible
25 Sep 4.4 02:16:06 10° NNE 02:20:57 42° E 02:25:46 10° SSE visible
26 Sep 5.5 01:39:43 10° NE 01:43:46 23° E 01:47:47 10° SE visible
27 Sep 6.1 01:04:14 10° ENE 01:06:21 12° E 01:08:30 10° ESE visible
27 Sep 3.6 02:41:20 10° NNE 02:46:25 65° ESE 02:51:28 10° S visible
